カタログに戻る

STARLINK-30863

運用中通信VLEO
NORAD 59027·PAYLOAD·🇺🇸 United States

打ち上げ Feb 25, 2024 から Cape Canaveral Space Force Station

Loading…

次のパス (今後24時間)

TLE

最新Source: CelesTrak SupGP

元期: Sep 15, 2026, 02:32 UTC

1 59027C 24038E   26258.10604167 -.00026847  00000+0 -97249-3 0  2588
2 59027  43.0048  37.7372 0001746 273.5094  13.7419 15.27587990    10

AllMySatでSTARLINK-30863をリアルタイム追跡

Download on the App Store